Regional Weather Roundup
Issued by NWS

Home | Current Version | Previous Version | Graphics & Text | Print | Product List | Glossary On
Versions: 1 2 3 4 5 6 7 8 9 10 11 12 13 14 15 16 17 18 19 20 21 22 23 24 25 26 27 28 29 30 31 32 33 34 35 36 37 38 39 40 41 42 43 44 45 46 47 48 49 50
000
ASUS45 KBOU 281107
RWRCO

WEATHER ROUNDUP FOR COLORADO
NATIONAL WEATHER SERVICE DENVER/BOULDER CO
500 AM MDT FRI AUG 28 2015

NOTE: "FAIR" INDICATES FEW OR NO CLOUDS BELOW 12000 FEET WITH NO
SIGNIFICANT WEATHER AND/OR OBSTRUCTIONS TO VISIBILITY.

COZ001>005-013-030-031-281200-
...NORTHWEST COLORADO...

CITY           SKY/WX    TMP DP  RH WIND       PRES   REMARKS
CRAIG          CLEAR     46  44  93 CALM      30.34R
HAYDEN         NOT AVBL
MEEKER         CLEAR     49  46  90 E5        30.36R
MOUNT WERNER   NOT AVBL
STEAMBOAT SPGS CLEAR     45  44  98 CALM      30.37R
WALDEN         CLEAR     43  41  93 SE6       30.41S
$$

COZ006>008-011-281200-
...WEST CENTRAL VALLEYS...

CITY           SKY/WX    TMP DP  RH WIND       PRES   REMARKS
GRAND JUNCTION CLEAR     59  54  83 SW3       30.23F
MONTROSE       CLEAR     54  51  90 CALM      30.32R
EAGLE          CLEAR     50  48  93 CALM      30.38F
RIFLE          CLEAR     52  49  89 S6        30.31R
DELTA          RAIN      58  53  81 E5        30.28S
NUCLA          CLEAR     59  46  63 E9        30.31F
$$

COZ017>023-064>068-281200-
...SOUTHWEST COLORADO...

CITY           SKY/WX    TMP DP  RH WIND       PRES   REMARKS
DURANGO        CLEAR     53  46  77 N3        30.29S
CORTEZ         CLEAR     53  50  89 E6        30.25F
PAGOSA SPRINGS CLEAR     49  49  97 CALM      30.36F
TELLURIDE      CLEAR     49  45  85 SE7       30.50S
WOLF CREEK PAS CLEAR     41  36  81 NE15      30.66S
$$

COZ009-010-012-014-032>034-037-058>063-281200-
...CENTRAL COLORADO...

CITY           SKY/WX    TMP DP  RH WIND       PRES   REMARKS
ASPEN          CLEAR     45  42  89 SW5       30.41F
BUENA VISTA    CLEAR     50  41  70 NW9       30.39S
COPPER MTN     CLOUDY    45  37  76 W16       30.64S
BERTHOUD PASS  HAZE      34  23  64 NW26G35   30.63S VSB<1/4 WCI  21
COTTONWOOD PAS CLEAR     54  36  50 W14       30.50S
GUNNISON       PTCLDY    48  43  81 N5        30.45R
KREMMLING      MOCLDY    43  41  93 CALM      30.41S
LEADVILLE      CLEAR     39  37  92 NE5       30.51S
MONARCH PASS   PTCLDY    39  36  87 SW10      30.73F
SALIDA         CLEAR     52  44  76 NW3       30.44F
SUNLIGHT       CLEAR     46  39  76 N3        30.61R
WILKERSON PASS PTCLDY    46  32  57 NW6       30.60S
$$

COZ069>075-281200-
...SAN LUIS VALLEY/SANGRE DE CRISTO MOUNTAINS...

CITY           SKY/WX    TMP DP  RH WIND       PRES   REMARKS
ALAMOSA        CLEAR     45  43  93 CALM      30.36R
LA VETA PASS   PTCLDY    46  43  87 MISG      30.50S
SAGUACHE       PTCLDY    54  43  66 NW13G20   30.40S
$$

COZ035-036-038>040-281200-
...NORTHERN COLORADO FRONT RANGE...

CITY           SKY/WX    TMP DP  RH WIND       PRES   REMARKS
DENVER INTL AP PTCLDY    60  53  77 W8        30.19R
DMNS CITY PARK   N/A     60  53  76 NE1G10    30.19F
AURORA         PTCLDY    58  56  93 W6        30.21S
FRONT RANGE AP PTCLDY    57  52  82 CALM      30.20S
ERIE MUNI ARPT CLEAR     56  53  89 CALM      30.18S
BOULDER MUN AP CLEAR     61  50  67 SW5       30.18S
CENTENNIAL     PTCLDY    60  54  80 W6        30.22S
BROOMFIELD     CLEAR     61  50  67 W5        30.22S
FORT COLLINS   CLEAR     61  48  63 NW12      30.17F
LONGMONT       CLEAR     58  53  81 W3        30.19F
$$

COZ041-046-047-076>085-087-088-281200-
...PIKES PEAK/PALMER DIVIDE AND SOUTHERN FOOTHILLS...

CITY           SKY/WX    TMP DP  RH WIND       PRES   REMARKS
COLO. SPRINGS  PTCLDY    63  46  54 N12       30.23S
A. F. ACADEMY  PTCLDY    53  48  84 N8        30.25F
ELLICOTT       CLEAR    N/A N/A N/A CALM      30.22R
FALCON         CLEAR     58  49  70 MISG      30.28S
FORT CARSON    CLEAR     56  50  81 N6        30.19S
LIMON          CLOUDY    57  54  89 W5        30.17S
MONUMENT HILL  PTCLDY    50  46  87 W7        30.30R
TRINIDAD       CLEAR     59  54  83 SW13      30.19S
$$

COZ042>045-048>051-090-091-281200-
...NORTHEAST COLORADO...

CITY           SKY/WX    TMP DP  RH WIND       PRES   REMARKS
GREELEY ARPT   CLEAR     59  52  77 NW9       30.16R
AKRON          PTCLDY    59  55  87 NW9       30.11S
BURLINGTON     CLEAR     58  54  86 W8        30.08F
WRAY           CLEAR     60  57  91 W8        30.04S
STERLING       PTCLDY    57  55  94 S3        30.07S
HOLYOKE        CLEAR     63  55  77 W13       30.04F
FORT MORGAN    CLOUDY    60  54  81 W7        30.12R
$$

COZ086-089-092>099-281200-
...SOUTHEAST COLORADO...

CITY           SKY/WX    TMP DP  RH WIND       PRES   REMARKS
PUEBLO         CLEAR     60  56  86 W3        30.13R
LA JUNTA       CLEAR     62  58  86 W6        30.10S
LAMAR          CLEAR     62  59  90 SW3       30.06R
SPRINGFIELD      N/A     61  57  87 W6        30.10R
$$




USA.gov is the U.S. government's official web portal to all federal, state and local government web resources and services.